• In Netherlands
  • List of Countries
  • For 7 days
  • Water Temperature
  • Satellite Maps
  • Weather Map
  • Weather Widgets
  • user-avatar
    Login

    Hourly Weather Kipungo

    Today, 20 November, Monday

    Time Temperature Precipitation Wind Pressure Humidity
    00:00 +23°C° 0 mm 2 mps 653 mmHg 48%
    01:00 +22°C° 0 mm 1 mps 653 mmHg 50%
    02:00 +21°C° 0 mm 1 mps 653 mmHg 51%
    03:00 +21°C° 0 mm 1 mps 653 mmHg 52%
    04:00 +21°C° 0 mm 1 mps 652 mmHg 53%
    05:00 +22°C° 0 mm 1 mps 653 mmHg 50%
    06:00 +23°C° 0 mm 1 mps 654 mmHg 46%
    07:00 +26°C° 0 mm 1 mps 655 mmHg 42%
    08:00 +28°C° 0 mm 1 mps 655 mmHg 38%
    09:00 +31°C° 0 mm 1 mps 656 mmHg 33%
    10:00 +34°C° 0 mm 1 mps 656 mmHg 28%
    11:00 +33°C° 0 mm 1 mps 656 mmHg 28%
    12:00 +33°C° 0 mm 1 mps 655 mmHg 28%
    13:00 +34°C° 0 mm 2 mps 654 mmHg 28%
    14:00 +34°C° 0 mm 2 mps 654 mmHg 28%
    15:00 +32°C° 0 mm 1 mps 654 mmHg 29%
    16:00 +32°C° 0 mm 1 mps 653 mmHg 30%
    17:00 +30°C° 1.4 mm 2 mps 653 mmHg 40%
    18:00 +27°C° 1.4 mm 3 mps 653 mmHg 51%
    19:00 +23°C° 1.4 mm 4 mps 653 mmHg 61%
    20:00 +23°C° 1.4 mm 4 mps 653 mmHg 64%
    21:00 +22°C° 1.4 mm 3 mps 654 mmHg 67%
    22:00 +21°C° 1.4 mm 3 mps 654 mmHg 70%
    23:00 +21°C° 0.5 mm 2 mps 654 mmHg 70%

    Tomorrow, 21 November, Tuesday

    Time Temperature Precipitation Wind Pressure Humidity
    00:00 +21°C° 0.5 mm 2 mps 654 mmHg 71%
    01:00 +21°C° 0.5 mm 2 mps 654 mmHg 72%
    02:00 +22°C° 0.2 mm 1 mps 654 mmHg 72%
    03:00 +22°C° 0.2 mm 1 mps 653 mmHg 73%
    04:00 +22°C° 0.2 mm 1 mps 653 mmHg 73%
    05:00 +22°C° 0.2 mm 1 mps 653 mmHg 72%
    06:00 +22°C° 0.2 mm 1 mps 654 mmHg 71%
    07:00 +23°C° 0.2 mm 1 mps 654 mmHg 70%
    08:00 +25°C° 0.1 mm 1 mps 654 mmHg 61%
    09:00 +27°C° 0.1 mm 1 mps 655 mmHg 52%
    10:00 +29°C° 0.1 mm 1 mps 656 mmHg 43%
    11:00 +30°C° 0 mm 1 mps 655 mmHg 39%
    12:00 +31°C° 0 mm 1 mps 655 mmHg 34%
    13:00 +32°C° 0 mm 2 mps 654 mmHg 29%
    14:00 +32°C° 0 mm 2 mps 654 mmHg 30%
    15:00 +31°C° 0 mm 2 mps 653 mmHg 31%
    16:00 +30°C° 0 mm 2 mps 653 mmHg 32%
    17:00 +29°C° 0 mm 2 mps 653 mmHg 34%
    18:00 +28°C° 0 mm 1 mps 653 mmHg 37%
    19:00 +26°C° 0 mm 1 mps 653 mmHg 39%
    20:00 +26°C° 0 mm 2 mps 653 mmHg 41%
    21:00 +26°C° 0 mm 2 mps 654 mmHg 44%
    22:00 +25°C° 0 mm 3 mps 654 mmHg 46%
    23:00 +24°C° 0 mm 2 mps 654 mmHg 52%

    Day after tomorrow, 22 November, Wednesday

    Time Temperature Precipitation Wind Pressure Humidity
    00:00 +23°C° 0 mm 2 mps 653 mmHg 59%
    01:00 +21°C° 0 mm 2 mps 653 mmHg 65%
    02:00 +20°C° 0 mm 2 mps 653 mmHg 69%
    03:00 +21°C° 0 mm 1 mps 652 mmHg 72%
    04:00 +20°C° 0 mm 1 mps 652 mmHg 75%
    05:00 +21°C° 0 mm 1 mps 653 mmHg 70%
    06:00 +22°C° 0 mm 1 mps 654 mmHg 66%
    07:00 +23°C° 0 mm 1 mps 654 mmHg 61%
    08:00 +26°C° 0 mm 1 mps 655 mmHg 50%
    09:00 +29°C° 0 mm 1 mps 656 mmHg 38%
    10:00 +32°C° 0 mm 2 mps 656 mmHg 27%
    11:00 +34°C° 0 mm 2 mps 656 mmHg 25%
    12:00 +35°C° 0 mm 2 mps 655 mmHg 22%
    13:00 +36°C° 0 mm 2 mps 654 mmHg 19%
    14:00 +35°C° 0 mm 2 mps 654 mmHg 22%
    15:00 +34°C° 0 mm 2 mps 653 mmHg 24%
    16:00 +32°C° 0 mm 1 mps 652 mmHg 26%
    17:00 +30°C° 0 mm 1 mps 652 mmHg 29%
    18:00 +29°C° 0 mm 1 mps 652 mmHg 33%
    19:00 +27°C° 0 mm 2 mps 652 mmHg 36%
    20:00 +26°C° 0 mm 2 mps 653 mmHg 39%
    21:00 +25°C° 0 mm 2 mps 653 mmHg 42%
    22:00 +24°C° 0 mm 2 mps 653 mmHg 45%
    23:00 +24°C° 0 mm 2 mps 653 mmHg 45%

    23 November, Thursday

    Time Temperature Precipitation Wind Pressure Humidity
    00:00 +24°C° 0 mm 2 mps 652 mmHg 46%
    01:00 +23°C° 0 mm 2 mps 652 mmHg 46%
    02:00 +23°C° 0 mm 2 mps 652 mmHg 47%
    03:00 +21°C° 0 mm 2 mps 652 mmHg 48%
    04:00 +22°C° 0 mm 1 mps 651 mmHg 50%
    05:00 +22°C° 0 mm 1 mps 652 mmHg 48%
    06:00 +23°C° 0 mm 1 mps 653 mmHg 47%
    07:00 +24°C° 0 mm 1 mps 653 mmHg 46%
    08:00 +26°C° 0 mm 2 mps 654 mmHg 39%
    09:00 +28°C° 0 mm 2 mps 654 mmHg 32%
    10:00 +30°C° 0 mm 3 mps 655 mmHg 26%
    11:00 +31°C° 0 mm 2 mps 654 mmHg 25%
    12:00 +34°C° 0 mm 2 mps 654 mmHg 24%
    13:00 +35°C° 0 mm 2 mps 653 mmHg 24%
    14:00 +33°C° 0 mm 1 mps 653 mmHg 26%
    15:00 +32°C° 0 mm 1 mps 652 mmHg 28%
    16:00 +31°C° 0 mm 1 mps 652 mmHg 30%
    17:00 +29°C° 0.1 mm 2 mps 652 mmHg 34%
    18:00 +28°C° 0.1 mm 2 mps 652 mmHg 38%
    19:00 +26°C° 0.1 mm 2 mps 652 mmHg 42%
    20:00 +25°C° 0.1 mm 2 mps 652 mmHg 47%
    21:00 +24°C° 0.1 mm 2 mps 652 mmHg 51%
    22:00 +23°C° 0.1 mm 2 mps 653 mmHg 55%
    23:00 +23°C° 0.1 mm 2 mps 652 mmHg 60%

    24 November, Friday

    Time Temperature Precipitation Wind Pressure Humidity
    00:00 +22°C° 0.1 mm 1 mps 652 mmHg 66%
    01:00 +21°C° 0.1 mm 1 mps 652 mmHg 71%
    02:00 +21°C° 0.1 mm 1 mps 652 mmHg 73%
    03:00 +20°C° 0.1 mm 1 mps 652 mmHg 74%
    04:00 +20°C° 0.1 mm 1 mps 651 mmHg 76%
    05:00 +21°C° 0 mm 1 mps 652 mmHg 72%
    06:00 +22°C° 0 mm 1 mps 653 mmHg 69%
    07:00 +23°C° 0 mm 1 mps 653 mmHg 65%
    08:00 +26°C° 0 mm 1 mps 654 mmHg 53%
    09:00 +29°C° 0 mm 1 mps 655 mmHg 41%
    10:00 +32°C° 0 mm 1 mps 655 mmHg 29%
    11:00 +34°C° 0 mm 2 mps 655 mmHg 28%
    12:00 +35°C° 0 mm 2 mps 654 mmHg 27%
    13:00 +35°C° 0 mm 2 mps 654 mmHg 25%
    14:00 +34°C° 0 mm 2 mps 653 mmHg 27%
    15:00 +32°C° 0 mm 2 mps 653 mmHg 29%
    16:00 +30°C° 0 mm 3 mps 652 mmHg 32%
    17:00 +29°C° 0 mm 3 mps 652 mmHg 36%
    18:00 +27°C° 0 mm 3 mps 652 mmHg 40%
    19:00 +26°C° 0 mm 3 mps 652 mmHg 44%
    20:00 +25°C° 0 mm 2 mps 653 mmHg 48%
    21:00 +24°C° 0 mm 2 mps 653 mmHg 53%
    22:00 +23°C° 0 mm 2 mps 653 mmHg 58%
    23:00 +21°C° 0 mm 2 mps 653 mmHg 62%

    25 November, Saturday

    Time Temperature Precipitation Wind Pressure Humidity
    00:00 +20°C° 0 mm 2 mps 652 mmHg 67%
    01:00 +20°C° 0 mm 2 mps 652 mmHg 71%
    02:00 +19°C° 0 mm 2 mps 652 mmHg 74%
    03:00 +19°C° 0 mm 2 mps 652 mmHg 77%
    04:00 +19°C° 0 mm 2 mps 652 mmHg 79%
    05:00 +19°C° 0 mm 2 mps 652 mmHg 75%
    06:00 +21°C° 0 mm 1 mps 653 mmHg 71%
    07:00 +22°C° 0 mm 1 mps 653 mmHg 67%
    08:00 +25°C° 0 mm 1 mps 654 mmHg 54%
    09:00 +28°C° 0 mm 1 mps 655 mmHg 42%
    10:00 +30°C° 0 mm 1 mps 655 mmHg 29%
    11:00 +31°C° 0 mm 1 mps 655 mmHg 28%
    12:00 +32°C° 0 mm 1 mps 654 mmHg 27%
    13:00 +32°C° 0 mm 1 mps 654 mmHg 26%
    14:00 +32°C° 0 mm 1 mps 653 mmHg 26%
    15:00 +31°C° 0 mm 2 mps 652 mmHg 27%
    16:00 +31°C° 0 mm 2 mps 652 mmHg 28%
    17:00 +29°C° 0 mm 2 mps 652 mmHg 32%
    18:00 +28°C° 0 mm 2 mps 652 mmHg 36%
    19:00 +26°C° 0 mm 2 mps 652 mmHg 40%
    20:00 +25°C° 0 mm 2 mps 653 mmHg 43%
    21:00 +24°C° 0 mm 2 mps 653 mmHg 45%
    22:00 +22°C° 0 mm 3 mps 653 mmHg 48%
    23:00 +21°C° 0 mm 2 mps 653 mmHg 50%
    Show more